DAPGS EDDS-EDSB

Flight info

Callsign DAPGS
Flight time 0h 37m
Altitude
Route
Aircraft

Departure

Time 2026-05-06 16:11
Airport Stuttgart Airport (EDDS)

Arrival

Time 2026-05-06 16:48
Airport Karlsruhe Baden-Baden Airport (EDSB)
Time Latitude Longitude Altitude Speed Heading
2026-05-06 16:02 48.69147 9.21383 1253 ft 0 kts 330°
2026-05-06 16:04 48.69148 9.21383 1253 ft 0 kts 324°
2026-05-06 16:05 48.69144 9.21378 1258 ft 3 kts 152°
2026-05-06 16:05 48.69135 9.21386 1253 ft 3 kts 137°
2026-05-06 16:05 48.69122 9.21434 1252 ft 7 kts 101°
2026-05-06 16:05 48.69121 9.21529 1259 ft 10 kts 74°
2026-05-06 16:06 48.69142 9.21640 1249 ft 11 kts 73°
2026-05-06 16:06 48.69164 9.21757 1252 ft 11 kts 75°
2026-05-06 16:06 48.69185 9.21871 1242 ft 12 kts 73°
2026-05-06 16:06 48.69211 9.22002 1241 ft 15 kts 74°
2026-05-06 16:07 48.69240 9.22157 1238 ft 15 kts 73°
2026-05-06 16:07 48.69271 9.22323 1231 ft 17 kts 72°
2026-05-06 16:07 48.69278 9.22455 1228 ft 10 kts 132°
2026-05-06 16:07 48.69238 9.22483 1228 ft 4 kts 164°
2026-05-06 16:08 48.69202 9.22502 1228 ft 8 kts 162°
2026-05-06 16:08 48.69165 9.22518 1228 ft 4 kts 162°
2026-05-06 16:08 48.69153 9.22524 1228 ft 0 kts 162°
2026-05-06 16:09 48.69139 9.22531 1227 ft 5 kts 162°
2026-05-06 16:09 48.69081 9.22558 1227 ft 8 kts 166°
2026-05-06 16:10 48.69051 9.22532 1228 ft 2 kts 254°
2026-05-06 16:10 48.69036 9.22455 1230 ft 33 kts 252°
2026-05-06 16:10 48.68900 9.21733 1260 ft 105 kts 252°
2026-05-06 16:10 48.68736 9.20582 1804 ft 111 kts 272°
2026-05-06 16:11 48.69246 9.19587 2189 ft 145 kts 314°
2026-05-06 16:11 48.69962 9.18475 2534 ft 149 kts 308°
2026-05-06 16:11 48.71059 9.17985 2970 ft 193 kts
2026-05-06 16:11 48.72392 9.18929 3008 ft 220 kts 27°
2026-05-06 16:12 48.73811 9.19705 2993 ft 215 kts
2026-05-06 16:12 48.75269 9.19685 3004 ft 216 kts 354°
2026-05-06 16:12 48.76826 9.19703 3010 ft 234 kts 357°
2026-05-06 16:12 48.78505 9.19786 3011 ft 248 kts 358°
2026-05-06 16:13 48.80270 9.19971 3010 ft 257 kts 359°
2026-05-06 16:13 48.82052 9.20046 3004 ft 255 kts 357°
2026-05-06 16:13 48.83781 9.19687 2984 ft 252 kts 334°
2026-05-06 16:13 48.85086 9.18023 2985 ft 243 kts 300°
2026-05-06 16:14 48.85607 9.15666 2988 ft 235 kts 278°
2026-05-06 16:14 48.85860 9.13185 2992 ft 238 kts 276°
2026-05-06 16:14 48.86095 9.10722 2992 ft 234 kts 276°
2026-05-06 16:14 48.86339 9.08261 2993 ft 238 kts 276°
2026-05-06 16:15 48.86577 9.05803 2988 ft 238 kts 276°
2026-05-06 16:15 48.86814 9.03324 2989 ft 235 kts 276°
2026-05-06 16:15 48.87053 9.00872 2988 ft 235 kts 276°
2026-05-06 16:15 48.87295 8.98396 2991 ft 237 kts 276°
2026-05-06 16:16 48.87535 8.95921 2992 ft 237 kts 276°
2026-05-06 16:16 48.87772 8.93440 2993 ft 236 kts 276°
2026-05-06 16:16 48.88008 8.90972 2992 ft 236 kts 276°
2026-05-06 16:16 48.88250 8.88487 2996 ft 238 kts 276°
2026-05-06 16:17 48.88488 8.86010 2987 ft 235 kts 276°
2026-05-06 16:17 48.88707 8.83582 2983 ft 236 kts 276°
2026-05-06 16:17 48.88925 8.81082 2989 ft 241 kts 275°
2026-05-06 16:17 48.89159 8.78563 2993 ft 238 kts 275°
2026-05-06 16:18 48.89394 8.76095 2989 ft 235 kts 276°
2026-05-06 16:18 48.89627 8.73638 2989 ft 234 kts 275°
2026-05-06 16:18 48.89855 8.71176 2989 ft 236 kts 275°
2026-05-06 16:18 48.90154 8.68735 2980 ft 237 kts 284°
2026-05-06 16:19 48.90903 8.66480 2983 ft 241 kts 296°
2026-05-06 16:19 48.91782 8.64290 2988 ft 243 kts 297°
2026-05-06 16:19 48.92660 8.62131 2982 ft 243 kts 297°
2026-05-06 16:19 48.93553 8.59950 2989 ft 244 kts 297°
2026-05-06 16:20 48.94443 8.57767 2987 ft 241 kts 297°
2026-05-06 16:20 48.95321 8.55604 2981 ft 239 kts 297°
2026-05-06 16:20 48.96189 8.53440 2983 ft 241 kts 297°
2026-05-06 16:20 48.97062 8.51249 2981 ft 242 kts 297°
2026-05-06 16:21 48.97935 8.49060 2980 ft 242 kts 297°
2026-05-06 16:21 48.98769 8.46965 2978 ft 223 kts 297°
2026-05-06 16:21 48.99543 8.45062 2984 ft 200 kts 297°
2026-05-06 16:21 49.00248 8.43393 2975 ft 174 kts 297°
2026-05-06 16:22 49.00911 8.41867 2324 ft 177 kts 297°
2026-05-06 16:22 49.01603 8.40275 1796 ft 175 kts 297°
2026-05-06 16:22 49.02255 8.38780 1780 ft 175 kts 297°
2026-05-06 16:22 49.02909 8.37269 1780 ft 162 kts 297°
2026-05-06 16:23 49.03511 8.35932 1778 ft 145 kts 297°
2026-05-06 16:23 49.04066 8.34700 1779 ft 136 kts 291°
2026-05-06 16:23 49.04053 8.33406 1782 ft 126 kts 231°
2026-05-06 16:23 49.03245 8.32990 1794 ft 131 kts 181°
2026-05-06 16:24 49.02323 8.33061 1799 ft 134 kts 183°
2026-05-06 16:24 49.01387 8.33071 1791 ft 134 kts 184°
2026-05-06 16:24 49.00464 8.33128 1788 ft 132 kts 178°
2026-05-06 16:24 48.99738 8.33975 1780 ft 148 kts 119°
2026-05-06 16:25 48.99486 8.35519 1795 ft 150 kts 109°
2026-05-06 16:25 48.99228 8.37057 1797 ft 150 kts 110°
2026-05-06 16:25 48.98962 8.38606 1798 ft 150 kts 111°
2026-05-06 16:25 48.98682 8.40139 1793 ft 151 kts 110°
2026-05-06 16:26 48.98410 8.41676 1794 ft 150 kts 110°
2026-05-06 16:26 48.98158 8.43223 1792 ft 151 kts 99°
2026-05-06 16:26 48.98535 8.44698 1779 ft 157 kts 41°
2026-05-06 16:26 48.99532 8.45169 1788 ft 151 kts 359°
2026-05-06 16:27 49.00590 8.45371 1796 ft 156 kts
2026-05-06 16:27 49.01670 8.45633 1799 ft 158 kts
2026-05-06 16:27 49.02772 8.45904 1795 ft 162 kts
2026-05-06 16:27 49.03878 8.46089 1785 ft 156 kts 347°
2026-05-06 16:28 49.04748 8.45309 1779 ft 143 kts 306°
2026-05-06 16:28 49.05402 8.44187 1780 ft 138 kts 295°
2026-05-06 16:28 49.05848 8.42908 1775 ft 137 kts 290°
2026-05-06 16:28 49.06296 8.41624 1782 ft 136 kts 290°
2026-05-06 16:29 49.06712 8.40456 1789 ft 118 kts 289°
2026-05-06 16:29 49.07075 8.39448 1769 ft 98 kts 285°
2026-05-06 16:29 49.07223 8.38569 1762 ft 77 kts 274°
2026-05-06 16:29 49.07353 8.37784 1773 ft 77 kts 275°
2026-05-06 16:30 49.07493 8.36892 1802 ft 96 kts 276°
2026-05-06 16:30 49.07591 8.36206 1805 ft 101 kts 275°
2026-05-06 16:30 49.07777 8.34850 1487 ft 102 kts 274°
2026-05-06 16:30 49.07929 8.33782 1176 ft 106 kts 277°
2026-05-06 16:31 49.08056 8.32708 1069 ft 99 kts 274°
2026-05-06 16:31 49.08174 8.31574 1369 ft 114 kts 276°
2026-05-06 16:31 49.08340 8.30401 1537 ft 113 kts 275°
2026-05-06 16:31 49.08492 8.29287 1489 ft 101 kts 275°
2026-05-06 16:32 49.08382 8.28372 1482 ft 87 kts 219°
2026-05-06 16:32 49.07876 8.27857 1482 ft 87 kts 220°
2026-05-06 16:32 49.07383 8.27291 1490 ft 92 kts 219°
2026-05-06 16:32 49.06862 8.26701 1497 ft 93 kts 220°
2026-05-06 16:33 49.06338 8.26104 1491 ft 95 kts 219°
2026-05-06 16:33 49.05822 8.25501 1491 ft 94 kts 210°
2026-05-06 16:33 49.05225 8.25726 1479 ft 105 kts 127°
2026-05-06 16:34 49.05152 8.28244 1496 ft 122 kts 99°
2026-05-06 16:34 49.05096 8.29528 1490 ft 122 kts 99°
2026-05-06 16:34 49.05049 8.30827 1484 ft 122 kts 99°
2026-05-06 16:34 49.04995 8.32104 1476 ft 120 kts 100°
2026-05-06 16:35 49.04958 8.33388 1488 ft 122 kts 98°
2026-05-06 16:35 49.04920 8.34672 1493 ft 119 kts 99°
2026-05-06 16:35 49.04883 8.35923 1487 ft 120 kts 98°
2026-05-06 16:35 49.04843 8.37193 1481 ft 118 kts 99°
2026-05-06 16:36 49.04804 8.38436 1477 ft 117 kts 100°
2026-05-06 16:36 49.04769 8.39691 1479 ft 119 kts 100°
2026-05-06 16:36 49.04538 8.40838 1481 ft 112 kts 128°
2026-05-06 16:36 49.04165 8.41921 1491 ft 117 kts 123°
2026-05-06 16:37 49.03933 8.42665 1499 ft 115 kts 123°
2026-05-06 16:37 49.03593 8.43756 1492 ft 112 kts 123°
2026-05-06 16:37 49.03254 8.44839 1494 ft 114 kts 124°
2026-05-06 16:37 49.02908 8.45917 1497 ft 111 kts 123°
2026-05-06 16:38 49.02587 8.46948 1489 ft 108 kts 124°
2026-05-06 16:38 49.02265 8.47982 1479 ft 109 kts 124°
2026-05-06 16:38 49.01934 8.49042 1499 ft 118 kts 124°
2026-05-06 16:38 49.01450 8.50233 1691 ft 142 kts 144°
2026-05-06 16:39 49.00504 8.50534 1823 ft 145 kts 201°
2026-05-06 16:39 48.99971 8.49556 1604 ft 125 kts 259°
2026-05-06 16:39 49.00135 8.48249 1491 ft 125 kts 277°
2026-05-06 16:39 49.00275 8.46927 1486 ft 130 kts 272°
2026-05-06 16:40 49.00410 8.45448 1487 ft 152 kts 273°
2026-05-06 16:40 49.00546 8.43729 1498 ft 175 kts 272°
2026-05-06 16:40 49.00700 8.41732 1500 ft 204 kts 273°
2026-05-06 16:40 49.00863 8.39448 1501 ft 225 kts 272°
2026-05-06 16:41 49.00576 8.37125 1489 ft 228 kts 242°
2026-05-06 16:41 48.99717 8.35150 1486 ft 232 kts 232°
2026-05-06 16:41 48.98760 8.33165 1492 ft 229 kts 233°
2026-05-06 16:41 48.97797 8.31165 1497 ft 234 kts 233°
2026-05-06 16:42 48.96861 8.29178 1489 ft 232 kts 234°
2026-05-06 16:42 48.95905 8.27129 1490 ft 239 kts 233°
2026-05-06 16:42 48.94951 8.25072 1495 ft 234 kts 232°
2026-05-06 16:42 48.93868 8.23244 1494 ft 234 kts 221°
2026-05-06 16:43 48.92561 8.21792 1490 ft 229 kts 213°
2026-05-06 16:43 48.91218 8.20550 1488 ft 225 kts 211°
2026-05-06 16:43 48.89957 8.19352 1492 ft 204 kts 213°
2026-05-06 16:43 48.88801 8.18263 1497 ft 184 kts 210°
2026-05-06 16:44 48.87784 8.17313 1489 ft 158 kts 212°
2026-05-06 16:44 48.86883 8.16463 1493 ft 143 kts 213°
2026-05-06 16:44 48.86091 8.15704 1491 ft 128 kts 210°
2026-05-06 16:44 48.85367 8.15059 1495 ft 114 kts 212°
2026-05-06 16:45 48.84766 8.14484 1488 ft 96 kts 213°
2026-05-06 16:45 48.84225 8.13947 1491 ft 89 kts 210°
2026-05-06 16:45 48.83724 8.13496 1491 ft 82 kts 211°
2026-05-06 16:45 48.83214 8.13009 1448 ft 89 kts 211°
2026-05-06 16:46 48.82719 8.12529 1329 ft 78 kts 210°
2026-05-06 16:46 48.82262 8.12109 1212 ft 75 kts 208°
2026-05-06 16:46 48.81836 8.11701 1112 ft 75 kts 207°
2026-05-06 16:46 48.81365 8.11274 1031 ft 83 kts 209°
2026-05-06 16:47 48.80898 8.10853 905 ft 72 kts 211°
2026-05-06 16:47 48.80503 8.10477 806 ft 65 kts 207°
2026-05-06 16:47 48.80076 8.10055 739 ft 74 kts 211°
2026-05-06 16:47 48.79636 8.09642 632 ft 76 kts 207°
2026-05-06 16:48 48.79209 8.09261 535 ft 69 kts 206°
2026-05-06 16:48 48.78815 8.08877 440 ft 63 kts 205°
2026-05-06 16:48 48.78496 8.08567 409 ft 45 kts 205°
2026-05-06 16:48 48.78255 8.08358 411 ft 57 kts 213°
2026-05-06 16:49 48.77762 8.07853 623 ft 102 kts 212°
2026-05-06 16:49 48.77617 8.07675 962 ft 3 kts 81°